User: anonymous   Login
Location: Unspecified
(0.0000°N, 0.0000°E)
Time: 08:19:04
(UTC+00:00)
Language:

SL-12 R/B(2) - Orbit

View from above orbital plane
View from above orbital plane
View from above satellite
View from above satellite

Ground track
Ground track

The orbit data is extracted from the following two-line orbital elements,

1 26486U 00051D   20093.36960744 +.00000027 +00000-0 +00000-0 0  9994
2 26486 062.7166 059.7249 7463943 268.2218 339.6778 01.45765425104183
Epoch (UTC): 02 April 2020 08:52:14
Eccentricity: 0.7463943
inclination: 62.7166°
perigee height: 1954 km
apogee height: 51003 km
right ascension of ascending node: 59.7249°
argument of perigee: 268.2218°
revolutions per day: 1.45765425
mean anomaly at epoch: 339.6778°
orbit number at epoch: 10418

The dashed part of the orbit path shows where the satellite is in the earth's shadow,  

DLR